• In Belarus
  • List of Countries
  • For 7 days
  • Water Temperature
  • Weather Map
  • Weather Widgets
  • user-avatar
    Login

    Hourly Weather Mörön

    Today, 17 November, Sunday

    Time Temperature Precipitation Wind Pressure Humidity
    00:00 -31°C° 0 mm 3 mps 622 mmHg 88%
    01:00 -32°C° 0 mm 3 mps 623 mmHg 85%
    02:00 -33°C° 0 mm 3 mps 623 mmHg 83%
    03:00 -34°C° 0 mm 3 mps 622 mmHg 82%
    04:00 -36°C° 0 mm 3 mps 622 mmHg 80%
    05:00 -35°C° 0 mm 2 mps 623 mmHg 80%
    06:00 -35°C° 0 mm 2 mps 623 mmHg 80%
    07:00 -34°C° 0 mm 2 mps 624 mmHg 81%
    08:00 -32°C° 0 mm 2 mps 624 mmHg 78%
    09:00 -31°C° 0 mm 2 mps 624 mmHg 75%
    10:00 -30°C° 0 mm 2 mps 624 mmHg 73%
    11:00 -29°C° 0 mm 2 mps 624 mmHg 71%
    12:00 -28°C° 0 mm 2 mps 623 mmHg 69%
    13:00 -26°C° 0 mm 2 mps 623 mmHg 68%
    14:00 -27°C° 0 mm 2 mps 622 mmHg 72%
    15:00 -24°C° 0 mm 1 mps 622 mmHg 77%
    16:00 -24°C° 0 mm 1 mps 621 mmHg 81%
    17:00 -24°C° 0 mm 1 mps 621 mmHg 80%
    18:00 -25°C° 0 mm 1 mps 621 mmHg 79%
    19:00 -25°C° 0 mm 1 mps 621 mmHg 77%
    20:00 -24°C° 0 mm 1 mps 621 mmHg 77%
    21:00 -27°C° 0 mm 2 mps 621 mmHg 77%
    22:00 -26°C° 0 mm 2 mps 621 mmHg 76%
    23:00 -26°C° 0 mm 2 mps 621 mmHg 76%

    Tomorrow, 18 November, Monday

    Time Temperature Precipitation Wind Pressure Humidity
    00:00 -27°C° 0 mm 2 mps 620 mmHg 75%
    01:00 -27°C° 0 mm 2 mps 620 mmHg 75%
    02:00 -27°C° 0 mm 2 mps 620 mmHg 75%
    03:00 -27°C° 0 mm 2 mps 620 mmHg 74%
    04:00 -27°C° 0 mm 2 mps 619 mmHg 74%
    05:00 -27°C° 0 mm 2 mps 619 mmHg 73%
    06:00 -27°C° 0 mm 2 mps 619 mmHg 73%
    07:00 -27°C° 0 mm 2 mps 619 mmHg 72%
    08:00 -26°C° 0 mm 2 mps 619 mmHg 72%
    09:00 -24°C° 0 mm 2 mps 619 mmHg 73%
    10:00 -20°C° 0 mm 1 mps 619 mmHg 73%
    11:00 -18°C° 0 mm 1 mps 619 mmHg 72%
    12:00 -17°C° 0 mm 1 mps 618 mmHg 71%
    13:00 -16°C° 0 mm 1 mps 618 mmHg 70%
    14:00 -16°C° 0 mm 1 mps 617 mmHg 74%
    15:00 -17°C° 0 mm 1 mps 617 mmHg 78%
    16:00 -17°C° 0 mm 1 mps 616 mmHg 82%
    17:00 -17°C° 0 mm 1 mps 616 mmHg 80%
    18:00 -17°C° 0 mm 1 mps 616 mmHg 78%
    19:00 -17°C° 0 mm 1 mps 616 mmHg 76%
    20:00 -16°C° 0 mm 1 mps 616 mmHg 74%
    21:00 -16°C° 0 mm 1 mps 615 mmHg 73%
    22:00 -16°C° 0 mm 1 mps 615 mmHg 72%
    23:00 -16°C° 0 mm 1 mps 615 mmHg 71%

    Day after tomorrow, 19 November, Tuesday

    Time Temperature Precipitation Wind Pressure Humidity
    00:00 -15°C° 0 mm 1 mps 615 mmHg 71%
    01:00 -15°C° 0 mm 1 mps 615 mmHg 70%
    02:00 -15°C° 0 mm 1 mps 614 mmHg 70%
    03:00 -15°C° 0 mm 1 mps 614 mmHg 70%
    04:00 -15°C° 0 mm 1 mps 613 mmHg 70%
    05:00 -15°C° 0 mm 1 mps 613 mmHg 71%
    06:00 -14°C° 0 mm 1 mps 614 mmHg 72%
    07:00 -14°C° 0 mm 1 mps 614 mmHg 73%
    08:00 -13°C° 0 mm 1 mps 614 mmHg 75%
    09:00 -12°C° 0 mm 1 mps 615 mmHg 78%
    10:00 -11°C° 0 mm 1 mps 615 mmHg 80%
    11:00 -10°C° 0 mm 1 mps 615 mmHg 80%
    12:00 -9°C° 0 mm 1 mps 615 mmHg 80%
    13:00 -8°C° 0 mm 1 mps 615 mmHg 80%
    14:00 -9°C° 0 mm 1 mps 615 mmHg 82%
    15:00 -10°C° 0 mm 1 mps 615 mmHg 83%
    16:00 -11°C° 0 mm 1 mps 615 mmHg 85%
    17:00 -12°C° 0 mm 1 mps 615 mmHg 84%
    18:00 -12°C° 0 mm 1 mps 615 mmHg 82%
    19:00 -13°C° 0 mm 1 mps 615 mmHg 81%
    20:00 -13°C° 0 mm 1 mps 615 mmHg 80%
    21:00 -13°C° 0 mm 1 mps 615 mmHg 80%
    22:00 -13°C° 0 mm 1 mps 615 mmHg 79%
    23:00 -13°C° 0 mm 1 mps 615 mmHg 78%

    20 November, Wednesday

    Time Temperature Precipitation Wind Pressure Humidity
    00:00 -13°C° 0 mm 1 mps 614 mmHg 77%
    01:00 -13°C° 0 mm 1 mps 614 mmHg 76%
    02:00 -13°C° 0 mm 1 mps 614 mmHg 76%
    03:00 -13°C° 0 mm 1 mps 614 mmHg 76%
    04:00 -13°C° 0 mm 1 mps 613 mmHg 76%
    05:00 -13°C° 0 mm 1 mps 613 mmHg 75%
    06:00 -13°C° 0 mm 1 mps 613 mmHg 74%
    07:00 -13°C° 0 mm 1 mps 612 mmHg 73%
    08:00 -12°C° 0 mm 1 mps 613 mmHg 73%
    09:00 -11°C° 0 mm 1 mps 613 mmHg 74%
    10:00 -9°C° 0 mm 1 mps 613 mmHg 74%
    11:00 -8°C° 0 mm 1 mps 612 mmHg 74%
    12:00 -7°C° 0 mm 1 mps 612 mmHg 74%
    13:00 -6°C° 0 mm 1 mps 611 mmHg 74%
    14:00 -7°C° 0 mm 1 mps 611 mmHg 73%
    15:00 -7°C° 0 mm 1 mps 611 mmHg 73%
    16:00 -8°C° 0 mm 1 mps 610 mmHg 72%
    17:00 -9°C° 0 mm 2 mps 610 mmHg 71%
    18:00 -9°C° 0 mm 2 mps 611 mmHg 69%
    19:00 -9°C° 0 mm 2 mps 611 mmHg 68%
    20:00 -9°C° 0 mm 2 mps 611 mmHg 68%
    21:00 -10°C° 0 mm 2 mps 610 mmHg 68%
    22:00 -10°C° 0 mm 2 mps 610 mmHg 68%
    23:00 -10°C° 0 mm 2 mps 609 mmHg 69%

    21 November, Thursday

    Time Temperature Precipitation Wind Pressure Humidity
    00:00 -10°C° 0 mm 2 mps 609 mmHg 69%
    01:00 -12°C° 0 mm 2 mps 608 mmHg 69%
    02:00 -12°C° 0 mm 2 mps 608 mmHg 69%
    03:00 -12°C° 0 mm 2 mps 607 mmHg 68%
    04:00 -12°C° 0 mm 2 mps 607 mmHg 68%
    05:00 -10°C° 0.1 mm 2 mps 607 mmHg 76%
    06:00 -10°C° 0.1 mm 2 mps 607 mmHg 84%
    07:00 -8°C° 0.1 mm 1 mps 607 mmHg 91%
    08:00 -8°C° 0 mm 1 mps 607 mmHg 90%
    09:00 -7°C° 0 mm 1 mps 607 mmHg 88%
    10:00 -7°C° 0 mm 1 mps 606 mmHg 87%
    11:00 -7°C° 0.1 mm 1 mps 606 mmHg 88%
    12:00 -7°C° 0.1 mm 1 mps 606 mmHg 90%
    13:00 -8°C° 0.1 mm 2 mps 606 mmHg 91%
    14:00 -9°C° 0.4 mm 2 mps 606 mmHg 90%
    15:00 -12°C° 0.4 mm 3 mps 607 mmHg 89%
    16:00 -15°C° 0.4 mm 4 mps 607 mmHg 89%
    17:00 -17°C° 0.1 mm 4 mps 608 mmHg 89%
    18:00 -19°C° 0.1 mm 4 mps 609 mmHg 90%
    19:00 -22°C° 0.1 mm 5 mps 610 mmHg 91%
    20:00 -23°C° 0.1 mm 4 mps 611 mmHg 88%
    21:00 -24°C° 0.1 mm 4 mps 612 mmHg 86%
    22:00 -25°C° 0.1 mm 4 mps 613 mmHg 84%
    23:00 -27°C° 0 mm 4 mps 614 mmHg 82%

    22 November, Friday

    Time Temperature Precipitation Wind Pressure Humidity
    00:00 -27°C° 0 mm 3 mps 614 mmHg 80%
    01:00 -30°C° 0 mm 3 mps 614 mmHg 78%
    02:00 -30°C° 0 mm 3 mps 615 mmHg 78%
    03:00 -31°C° 0 mm 3 mps 615 mmHg 78%
    04:00 -31°C° 0 mm 3 mps 616 mmHg 78%
    05:00 -32°C° 0 mm 3 mps 616 mmHg 79%
    06:00 -32°C° 0 mm 3 mps 616 mmHg 79%
    07:00 -30°C° 0 mm 2 mps 617 mmHg 79%
    08:00 -29°C° 0 mm 2 mps 617 mmHg 78%
    09:00 -28°C° 0 mm 2 mps 617 mmHg 77%
    10:00 -27°C° 0 mm 2 mps 618 mmHg 76%
    11:00 -26°C° 0 mm 2 mps 618 mmHg 74%
    12:00 -24°C° 0 mm 2 mps 617 mmHg 72%
    13:00 -20°C° 0 mm 1 mps 617 mmHg 69%
    14:00 -21°C° 0 mm 1 mps 617 mmHg 74%
    15:00 -22°C° 0 mm 1 mps 616 mmHg 78%
    16:00 -23°C° 0 mm 0 mps 616 mmHg 83%
    17:00 -23°C° 0 mm 1 mps 616 mmHg 81%
    18:00 -23°C° 0 mm 1 mps 616 mmHg 80%
    19:00 -24°C° 0 mm 1 mps 615 mmHg 79%
    20:00 -24°C° 0 mm 1 mps 615 mmHg 77%
    21:00 -24°C° 0 mm 1 mps 615 mmHg 76%
    22:00 -24°C° 0 mm 1 mps 615 mmHg 75%
    23:00 -24°C° 0 mm 1 mps 615 mmHg 74%
    Show more